CES258 ZSJN-ZUUU

Flight info

Callsign CES258
Flight time N/A
Altitude 36100
Route EXUVU7Y EXUVU W4 LIMGI W152 BUBDU W276 ANRUG W279 ONEBA G212 SUBUL W230 AKDIK AKDIK4C
Aircraft B38M/M-SDE1FGHILORVWXY/HB1

Departure

Time 2026-05-05 08:58
Airport Jinan Yaoqiang International Airport (ZSJN)

Arrival

Time N/A
Airport Chengdu Shuangliu International Airport (ZUUU)
Time Latitude Longitude Altitude Speed Heading
2026-05-05 08:36 36.85505 117.21145 86 ft 0 kts 290°
2026-05-05 08:46 36.85499 117.21163 89 ft 4 kts 289°
2026-05-05 08:46 36.85490 117.21194 86 ft 4 kts 300°
2026-05-05 08:46 36.85474 117.21212 84 ft 3 kts 356°
2026-05-05 08:46 36.85471 117.21212 85 ft 0 kts
2026-05-05 08:49 36.85472 117.21212 84 ft 1 kts
2026-05-05 08:49 36.85484 117.21212 88 ft 3 kts 359°
2026-05-05 08:49 36.85511 117.21212 86 ft 5 kts 359°
2026-05-05 08:49 36.85548 117.21224 84 ft 6 kts 37°
2026-05-05 08:50 36.85582 117.21266 86 ft 8 kts 38°
2026-05-05 08:50 36.85625 117.21272 86 ft 7 kts 358°
2026-05-05 08:50 36.85679 117.21270 85 ft 9 kts 359°
2026-05-05 08:50 36.85740 117.21280 84 ft 8 kts 18°
2026-05-05 08:51 36.85745 117.21283 84 ft 0 kts 30°
2026-05-05 08:51 36.85746 117.21286 84 ft 1 kts 52°
2026-05-05 08:51 36.85746 117.21295 84 ft 2 kts 86°
2026-05-05 08:51 36.85748 117.21319 88 ft 5 kts 86°
2026-05-05 08:52 36.85780 117.21366 84 ft 10 kts 16°
2026-05-05 08:52 36.85850 117.21370 86 ft 11 kts 359°
2026-05-05 08:52 36.85931 117.21368 85 ft 13 kts
2026-05-05 08:52 36.86052 117.21369 86 ft 23 kts 359°
2026-05-05 08:53 36.86239 117.21370 85 ft 29 kts
2026-05-05 08:53 36.86399 117.21370 83 ft 20 kts
2026-05-05 08:53 36.86544 117.21370 85 ft 22 kts 360°
2026-05-05 08:53 36.86698 117.21369 86 ft 23 kts 359°
2026-05-05 08:54 36.86859 117.21371 84 ft 24 kts
2026-05-05 08:54 36.87025 117.21370 85 ft 24 kts
2026-05-05 08:54 36.87195 117.21369 86 ft 25 kts
2026-05-05 08:54 36.87335 117.21385 87 ft 12 kts 42°
2026-05-05 08:55 36.87345 117.21425 86 ft 0 kts 95°
2026-05-05 08:55 36.87345 117.21427 86 ft 1 kts 95°
2026-05-05 08:56 36.87344 117.21446 89 ft 2 kts 95°
2026-05-05 08:56 36.87343 117.21462 86 ft 1 kts 95°
2026-05-05 08:56 36.87340 117.21496 88 ft 8 kts 96°
2026-05-05 08:56 36.87331 117.21561 93 ft 7 kts 112°
2026-05-05 08:57 36.87292 117.21592 93 ft 7 kts 172°
2026-05-05 08:57 36.87200 117.21597 91 ft 35 kts 179°
2026-05-05 08:57 36.86925 117.21595 91 ft 84 kts 180°
2026-05-05 08:57 36.85711 117.21528 136 ft 170 kts 183°
2026-05-05 08:58 36.84857 117.21490 307 ft 200 kts 186°
2026-05-05 08:58 36.83475 117.21520 1347 ft 190 kts 179°
2026-05-05 08:58 36.82150 117.21624 2338 ft 200 kts 176°
2026-05-05 08:58 36.80805 117.22367 2877 ft 230 kts 140°
2026-05-05 08:59 36.80026 117.24171 3740 ft 251 kts 103°
2026-05-05 08:59 36.80197 117.26377 4722 ft 263 kts 79°
2026-05-05 08:59 36.80598 117.28626 5584 ft 269 kts 84°
2026-05-05 08:59 36.80952 117.30932 6531 ft 272 kts 83°
2026-05-05 09:00 36.81352 117.33260 7363 ft 282 kts 73°
2026-05-05 09:00 36.82417 117.35413 7898 ft 305 kts 44°
2026-05-05 09:00 36.84257 117.36705 8754 ft 306 kts 13°
2026-05-05 09:00 36.86376 117.36915 9608 ft 308 kts 355°
2026-05-05 09:01 36.88546 117.36884 10289 ft 319 kts 357°
2026-05-05 09:01 36.90833 117.36880 10670 ft 338 kts 358°
2026-05-05 09:01 36.93257 117.36883 10988 ft 358 kts 358°
2026-05-05 09:01 36.95821 117.36887 11268 ft 378 kts 358°
2026-05-05 09:02 36.98517 117.36892 11475 ft 397 kts 358°
2026-05-05 09:02 37.01334 117.36892 11771 ft 411 kts 358°
2026-05-05 09:02 37.03971 117.36030 12088 ft 390 kts 314°
2026-05-05 09:02 37.04985 117.33378 5587 ft 317 kts 250°
2026-05-05 09:03 37.03308 117.32004 90 ft 166 kts 240°
2026-05-05 09:03 37.02722 117.31616 69 ft 68 kts 207°
2026-05-05 09:03 37.02341 117.31383 76 ft 54 kts 204°
2026-05-05 09:03 37.02026 117.31214 75 ft 45 kts 200°
2026-05-05 09:04 37.01835 117.31123 69 ft 1 kts 315°
2026-05-05 09:04 37.01849 117.31106 69 ft 1 kts 317°
2026-05-05 09:04 37.01848 117.31107 69 ft 0 kts 317°